Other Surface Observations
Issued by NWS Tucson, AZ

Home | Current Version | Previous Version | Text Only | Print | Product List | Glossary On
Versions: 1 2 3 4 5 6 7 8 9 10 11 12 13 14 15 16 17 18 19 20 21 22 23 24 25 26 27 28 29 30 31 32 33 34 35 36 37 38 39 40 41 42 43 44 45 46 47 48 49 50
276
SXUS55 KTWC 260515
OSOTWC

WEATHER ROUNDUP FOR SOUTHEAST ARIZONA
NATIONAL WEATHER SERVICE TUCSON AZ
1015 PM MST THU MAY 25 2017

AZZ504>506-514-260615-
LOCATION       SKY/WX    TMP DP  RH WIND       PRES   REMARKS
TUCSON         PTCLDY    82  16   8 S15       29.88R
DAVIS-MONTHAN  PTCLDY    81  15   8 SW10G17   29.87R
CHILDRENS PARK N/A      N/A N/A   8 SW6               PIMA CO DEQ
ALVERNON/22ND  N/A       86 N/A N/A W8                PIMA CO DEQ
CHERRY/GLENN   N/A      N/A N/A N/A N/A               PIMA CO DEQ
TANGERINE      N/A       84 N/A N/A SW6               PIMA CO DEQ
CONTL RANCH    N/A       86  15   7 SW9               PIMA CO DEQ
GRANT/1ST      N/A       86  18   8 SW8               PIMA CO DEQ
CRAYCROFT/22ND N/A       85  17   8 N/A               PIMA CO DEQ
GOLFLINKS/KOLB N/A      N/A N/A N/A N/A               PIMA CO DEQ
AJO/12TH       N/A       85  20   9 SW7               PIMA CO DEQ
FAIRGROUNDS    N/A       81 N/A N/A N/A               PIMA CO DEQ
SAGUARO        N/A       81  14   8 NW4G13            *SABINO CYN
SAN CARLOS     N/A       81  17   9 W4                *SAN CARLOS
GREEN VALLEY   N/A       81  17   9 SW8               PIMA CO DEQ
HORSE CAMP CYN N/A       77  18  11 SW10G24           *ARAVAIPA CYN
RINCON MTNS    NOT AVBL
$$

AZZ509>511-260615-
LOCATION       SKY/WX    TMP DP  RH WIND       PRES   REMARKS
SAFFORD        PTCLDY    80  15   8 W10       29.83R
STRAY HORSE    N/A       59   8  13 N/A               *
TRAIL CABIN    N/A       67  13  12 W4G17             *N OF GRANVILLE
BLACK HILLS    NOT AVBL
DRY LAKE       N/A       60  12  15 W6G14             *NATANES MTNS
NOON CREEK     N/A       74  16  11 SW10G26           *PINALENO MTNS
COLUMBINE      N/A       50  16  25 SW7G18            *PINALENO MTNS
GUTHRIE        N/A       68  14  12 W12G23            *SW OF GUTHRIE
$$

AZZ502-503-513-260615-
LOCATION       SKY/WX    TMP DP  RH WIND       PRES   REMARKS
NOGALES        CLEAR     72  15  11 S5        29.97R
SELLS          N/A       81  19  10 SW15G22           *
SASABE         N/A       74  18  12 S7G14             *ALTAR VLY
HOPKINS        N/A       59  10  14 W10G21            *SANTA RITA MTNS
CARR CYN       N/A       70  23  17 NW3G10            *W OF HEREFORD
$$

AZZ507-508-512-260615-
LOCATION       SKY/WX    TMP DP  RH WIND       PRES   REMARKS
SIERRA VISTA   PTCLDY    73  16  11 SW6       30.02R
DOUGLAS        MOCLDY    76  32  20 SW17      29.97R
EMPIRE MTNS    NOT AVBL
MULESHOE RANCH N/A       75  19  12 NW6G13            *PRESERVE
HEADQUARTERS   NOT AVBL
$$

.............................NOTES.............................
THIS IS AN AUTOMATED COLLECTIVE WITH MINIMAL QUALITY CONTROL.
PIMA CO DEQ SITES HAVE NONSTANDARD WIND SENSOR HEIGHTS.
PIMA CO DEQ SITES DO NOT REPORT WIND GUSTS.
* INDICATES WIND SENSORS LOCATED AT 20 FEET INSTEAD OF 33 FEET.
..............................KEY..............................
SKY/WX - SKY CONDITION/WEATHER
TMP    - TEMPERATURE IN FAHRENHEIT
DP     - DEWPOINT IN FAHRENHEIT
RH     - RELATIVE HUMIDITY IN PERCENT
WIND   - DIRECTION AND SPEED IN MILES PER HOUR (MPH)
VRB    - VARIABLE WIND DIRECTION
PRES   - MEAN SEA LEVEL PRESSURE IN INCHES OF MERCURY
         F - FALLING PRESSURE   R - RISING PRESSURE
         S - STEADY PRESSURE
VSB    - VISIBILITY IN MILES
HX     - HEAT INDEX IN FAHRENHEIT
WCI    - WIND CHILL INDEX IN FAHRENHEIT
N/A    - NOT AVAILABLE
AFB    - AIR FORCE BASE
         DAVIS-MONTHAN IS DAVIS-MONTHAN AIR FORCE BASE
CYN    - CANYON
MTNS   - MOUNTAINS
NCA    - NATIONAL CONSERVATION AREA
NR     - NEAR
VLY    - VALLEY
CONTL  - CONTINENTAL
PIMA CO DEQ - PIMA COUNTY DEPT OF ENVIRONMENTAL QUALITY



USA.gov is the U.S. government's official web portal to all federal, state and local government web resources and services.